Change the Weather History Date:

Monday, December 9, 2013

  Actual Average Record
Temperature  
Mean Temperature 11 °F -  
Max Temperature 24 °F 44 °F 65 °F (1981)
Min Temperature -2 °F 13 °F -18 °F (1978)
Degree Days  
Heating Degree Days 54    
Moisture  
Dew Point 5 °F    
Average Humidity 73    
Maximum Humidity 92    
Minimum Humidity 42    
Precipitation  
Precipitation 0.00 in - - ()
Sea Level Pressure  
Sea Level Pressure 30.45 in    
Wind  
Wind Speed 2 mph (North)    
Max Wind Speed 7 mph    
Max Gust Speed -    
Visibility 10 miles    
Events Snow    
Averages and records for this station are not official NWS values.
T = Trace of Precipitation, MM = Missing Value Source: NWS Daily Summary

Daily Weather History Graph

Daily Weather History Graph

Search for Another Location

Airport or City:

Trip Planner

Search our weather history database for the weather conditions in past years. The results will help you decide how hot, cold, wet, or windy it might be!

Date:

Astronomy

Dec. 09, 2013 Rise Set
Actual Time 7:13 AM MST 5:02 PM MST
Civil Twilight 6:44 AM MST 5:30 PM MST
Nautical Twilight 6:13 AM MST 6:02 PM MST
Astronomical Twilight 5:42 AM MST 6:33 PM MST
Moon 12:20 PM MST (12/9) No Moon Set
Length of Visible Light 10h 45m
Length of Day
9h 49m
First Quarter, 52% of the Moon is Illuminated
Dec 9
First Quarter
Dec 17
Full
Dec 25
Last Quarter
Jan 1
New
Jan 7
First Quarter

Hourly Weather History & Observations

Time (MST) Temp. Windchill Dew Point Humidity Pressure Visibility Wind Dir Wind Speed Gust Speed Precip Events Conditions
12:53 AM 19.0 °F 13.9 °F 16.0 °F 88% 30.16 in 9.0 mi South 3.5 mph - 0.00 in Snow Light Snow
1:00 AM 19.0 °F 13.9 °F 17.1 °F 92% 29.99 in 9.0 mi SSW 3.5 mph - 0.00 in   Overcast
1:15 AM 19.0 °F - 16.0 °F 88% 29.98 in 7.0 mi Calm Calm - 0.00 in Snow Light Snow
1:53 AM 18.0 °F 12.7 °F 15.1 °F 88% 30.15 in 10.0 mi South 3.5 mph - 0.00 in   Overcast
2:53 AM 16.0 °F - 14.0 °F 92% 30.17 in 10.0 mi Calm Calm - N/A   Overcast
3:53 AM 16.0 °F - 12.9 °F 88% 30.18 in 10.0 mi Calm Calm - 0.00 in   Overcast
4:53 AM 16.0 °F - 12.0 °F 84% 30.19 in 10.0 mi Calm Calm - N/A   Overcast
5:53 AM 10.9 °F - 8.1 °F 88% 30.27 in 10.0 mi Calm Calm - N/A   Mostly Cloudy
6:53 AM 3.9 °F -5.3 °F 1.9 °F 91% 30.35 in 10.0 mi NE 4.6 mph - N/A   Clear
7:53 AM -0.0 °F - -2.0 °F 91% 30.47 in 10.0 mi Calm Calm - N/A   Clear
8:53 AM 10.0 °F 1.8 °F 5.0 °F 80% 30.44 in 10.0 mi West 4.6 mph - N/A   Clear
9:53 AM 14.0 °F 8.2 °F 6.1 °F 71% 30.46 in 10.0 mi WSW 3.5 mph - N/A   Clear
10:53 AM 17.1 °F - 5.0 °F 59% 30.45 in 10.0 mi Calm Calm - N/A   Clear
11:53 AM 21.0 °F 12.4 °F 1.0 °F 42% 30.42 in 10.0 mi ENE 6.9 mph - N/A   Clear
12:53 PM 21.9 °F 17.2 °F 3.0 °F 44% 30.42 in 10.0 mi NNW 3.5 mph - N/A   Clear
1:53 PM 21.9 °F 14.5 °F 6.1 °F 51% 30.46 in 10.0 mi NE 5.8 mph - N/A   Clear
2:53 PM 24.1 °F 18.2 °F 3.9 °F 42% 30.48 in 10.0 mi North 4.6 mph - N/A   Clear
3:53 PM 23.0 °F 18.4 °F 3.9 °F 44% 30.51 in 10.0 mi North 3.5 mph - N/A   Clear
4:53 PM 19.9 °F 14.9 °F 3.9 °F 50% 30.56 in 10.0 mi NNE 3.5 mph - N/A   Clear
5:53 PM 14.0 °F 3.9 °F 3.0 °F 62% 30.66 in 10.0 mi NNE 6.9 mph - N/A   Clear
6:53 PM 7.0 °F - -0.0 °F 73% 30.79 in 10.0 mi Calm Calm - N/A   Clear
7:53 PM 1.9 °F - -2.0 °F 83% 30.88 in 10.0 mi Calm Calm - N/A   Clear
8:53 PM 1.0 °F - -4.0 °F 79% 30.82 in 10.0 mi Calm Calm - N/A   Clear
9:53 PM 1.0 °F - -4.0 °F 79% 30.81 in 10.0 mi Calm Calm - N/A   Clear
10:53 PM -2.9 °F - -8.0 °F 79% 30.87 in 10.0 mi Calm Calm - N/A   Clear
11:53 PM -2.9 °F - -7.1 °F 82% 30.86 in 10.0 mi Calm Calm - N/A   Clear